DW7262 La Rochelle FR current weather conditions

sailwx.info

Wind from 112 at 1 knots gusting 6

Air temperature 15.0° C
Dewpoint 13.0° C

Last reported at 2014-Nov-21 19:21 UTC.
Time now 2014-Nov-21 20:18 UTC

Location: N 45°57' W 001°22'.
View on Google Maps.

See reports from other nearby stations

  
Tides and Currents Weather Stations Pressure Air Temp Water Temp Dewpoint Dewpoint Depression Visibility Wind Speed Wind Dir Waves Ship Positions
date/time (UTC)wind fromknots sea level pressurealtimeterstation pressurevisibilityair tempwater tempwave heightnotes
2014-Nov-21 19:21 112 1 gusting 6 15.0
2014-Nov-21 19:11 113 0 gusting 5 15.0
2014-Nov-21 18:49 093 15.0
2014-Nov-21 18:28 110 0 gusting 4 15.0
2014-Nov-21 18:17 154 1 gusting 4 15.0
2014-Nov-21 17:44 152 0 gusting 6 15.6
2014-Nov-21 17:34 122 0 gusting 4 15.6
2014-Nov-21 16:49 111 2 gusting 6 15.6
2014-Nov-21 16:28 142 3 gusting 9 15.6
2014-Nov-21 16:05 105 3 gusting 6 16.1
2014-Nov-21 15:55 114 3 gusting 6 16.7
2014-Nov-21 15:45 108 3 gusting 6 17.2
2014-Nov-21 15:13 110 1 gusting 5 17.8
2014-Nov-21 15:03 092 3 gusting 7 17.8
2014-Nov-21 14:53 092 4 gusting 7 17.8
2014-Nov-21 14:43 149 4 gusting 6 17.8
2014-Nov-21 14:33 110 3 gusting 4 17.8
2014-Nov-20 22:30 092 10.0
2014-Nov-20 16:55 113 1 gusting 4 13.3
2014-Nov-20 16:45 090 1 gusting 3 13.9
2014-Nov-20 16:35 109 1 gusting 4 13.9
2014-Nov-20 15:40 101 2 gusting 5 15.6
2014-Nov-20 15:30 080 1 gusting 5 16.1
2014-Nov-20 15:20 093 2 gusting 5 16.1
2014-Nov-20 14:48 074 3 gusting 6 16.1
2014-Nov-20 14:14 099 5 gusting 11 16.1
2014-Nov-20 13:52 116 5 gusting 9 16.1
2014-Nov-20 13:42 105 5 gusting 9 16.1
2014-Nov-20 13:32 101 6 gusting 9 16.1
2014-Nov-20 12:48 078 6 gusting 12 15.6
2014-Nov-20 12:03 084 4 gusting 8 15.0
2014-Nov-20 11:52 098 5 gusting 12 15.0
2014-Nov-20 11:43 092 6 gusting 13 14.4
2014-Nov-20 11:21 101 4 gusting 11 13.9
2014-Nov-20 11:10 115 5 gusting 11 13.9
2014-Nov-20 11:00 081 4 gusting 7 13.3
2014-Nov-20 08:32 041 4 gusting 10 11.1
2014-Nov-20 08:12 096 2 gusting 7 10.6
2014-Nov-20 07:50 077 2 gusting 5 10.0
2014-Nov-20 07:28 041 1 gusting 6 10.0
2014-Nov-20 07:18 079 2 gusting 6 10.0
2014-Nov-19 21:37 125 1 gusting 2 11.7
2014-Nov-19 20:40 111 1 gusting 4 11.7
2014-Nov-19 20:29 083 1 gusting 4 11.1
2014-Nov-19 20:19 095 0 gusting 1 11.1